User: anonymous   Login
Location: Unspecified
(0.0000°N, 0.0000°E)
Time: 00:16:15
(UTC+00:00)
Language:

HUMSAT D - Orbit

View from above orbital plane
View from above orbital plane
View from above satellite
View from above satellite

Ground track
Ground track

The orbit data is extracted from the following two-line orbital elements,

1 39433U 13066T   17328.59186888 +.00000759 +00000-0 +80313-4 0  9992
2 39433 097.6336 026.8204 0031998 045.8695 314.5148 14.91659301216742
Epoch (UTC): 24 November 2017 14:12:17
Eccentricity: 0.0031998
inclination: 97.6336°
perigee height: 570 km
apogee height: 615 km
right ascension of ascending node: 26.8204°
argument of perigee: 45.8695°
revolutions per day: 14.91659301
mean anomaly at epoch: 314.5148°
orbit number at epoch: 21674

The dashed part of the orbit path shows where the satellite is in the earth's shadow,  

DLR